Hourly Weather Smolyaki

Today, 18 May, Tuesday

Time Temperature Precipitation Wind Pressure Humidity
00:00 +16°C° 0.2 mm 3 mps 732 mmHg 94%
01:00 +16°C° 0.2 mm 3 mps 732 mmHg 95%
02:00 +15°C° 0.2 mm 4 mps 732 mmHg 96%
03:00 +15°C° 0 mm 4 mps 732 mmHg 96%
04:00 +15°C° 0 mm 4 mps 732 mmHg 96%
05:00 +15°C° 0 mm 4 mps 732 mmHg 96%
06:00 +16°C° 0 mm 5 mps 732 mmHg 93%
07:00 +17°C° 0 mm 5 mps 733 mmHg 90%
08:00 +19°C° 0 mm 5 mps 733 mmHg 87%
09:00 +19°C° 0 mm 5 mps 733 mmHg 83%
10:00 +20°C° 0 mm 5 mps 733 mmHg 78%
11:00 +20°C° 0 mm 4 mps 733 mmHg 74%
12:00 +19°C° 0.9 mm 4 mps 733 mmHg 79%
13:00 +17°C° 0.9 mm 5 mps 733 mmHg 84%
14:00 +16°C° 0.9 mm 5 mps 733 mmHg 89%
15:00 +18°C° 0.5 mm 4 mps 733 mmHg 87%
16:00 +18°C° 0.5 mm 3 mps 733 mmHg 85%
17:00 +19°C° 0.5 mm 3 mps 732 mmHg 82%
18:00 +18°C° 1.1 mm 2 mps 732 mmHg 87%
19:00 +17°C° 1.1 mm 2 mps 732 mmHg 92%
20:00 +16°C° 1.1 mm 1 mps 731 mmHg 97%
21:00 +16°C° 1.3 mm 2 mps 731 mmHg 96%
22:00 +15°C° 1.3 mm 2 mps 731 mmHg 96%
23:00 +15°C° 1.3 mm 2 mps 731 mmHg 96%

Tomorrow, 19 May, Wednesday

Time Temperature Precipitation Wind Pressure Humidity
00:00 +14°C° 0 mm 3 mps 732 mmHg 96%
01:00 +13°C° 0 mm 3 mps 732 mmHg 96%
02:00 +13°C° 0 mm 3 mps 732 mmHg 97%
03:00 +13°C° 0.1 mm 3 mps 732 mmHg 97%
04:00 +13°C° 0.1 mm 3 mps 732 mmHg 97%
05:00 +12°C° 0.1 mm 3 mps 732 mmHg 98%
06:00 +13°C° 0 mm 3 mps 732 mmHg 94%
07:00 +14°C° 0 mm 4 mps 733 mmHg 91%
08:00 +15°C° 0 mm 5 mps 733 mmHg 88%
09:00 +16°C° 0.3 mm 5 mps 733 mmHg 84%
10:00 +17°C° 0.3 mm 5 mps 733 mmHg 80%
11:00 +17°C° 0.3 mm 5 mps 733 mmHg 76%
12:00 +19°C° 0.3 mm 5 mps 733 mmHg 73%
13:00 +19°C° 0.3 mm 4 mps 734 mmHg 71%
14:00 +20°C° 0.3 mm 4 mps 734 mmHg 69%
15:00 +19°C° 0.3 mm 3 mps 734 mmHg 73%
16:00 +19°C° 0.3 mm 3 mps 734 mmHg 76%
17:00 +19°C° 0.3 mm 2 mps 734 mmHg 80%
18:00 +17°C° 0.7 mm 2 mps 734 mmHg 84%
19:00 +16°C° 0.7 mm 2 mps 734 mmHg 87%
20:00 +15°C° 0.7 mm 1 mps 734 mmHg 90%
21:00 +15°C° 0.8 mm 1 mps 734 mmHg 92%
22:00 +15°C° 0.8 mm 1 mps 734 mmHg 95%
23:00 +14°C° 0.8 mm 1 mps 734 mmHg 97%

Day after tomorrow, 20 May, Thursday

Time Temperature Precipitation Wind Pressure Humidity
00:00 +14°C° 0.6 mm 2 mps 733 mmHg 97%
01:00 +14°C° 0.6 mm 2 mps 733 mmHg 98%
02:00 +13°C° 0.6 mm 3 mps 733 mmHg 98%
03:00 +13°C° 0.5 mm 3 mps 732 mmHg 98%
04:00 +13°C° 0.5 mm 3 mps 732 mmHg 98%
05:00 +13°C° 0.5 mm 3 mps 732 mmHg 98%
06:00 +13°C° 0.3 mm 3 mps 731 mmHg 97%
07:00 +14°C° 0.3 mm 2 mps 731 mmHg 97%
08:00 +14°C° 0.3 mm 2 mps 731 mmHg 96%
09:00 +13°C° 0.5 mm 3 mps 731 mmHg 95%
10:00 +13°C° 0.5 mm 3 mps 730 mmHg 93%
11:00 +13°C° 0.5 mm 4 mps 730 mmHg 92%
12:00 +13°C° 1.7 mm 4 mps 730 mmHg 93%
13:00 +12°C° 1.7 mm 3 mps 730 mmHg 95%
14:00 +12°C° 1.7 mm 3 mps 730 mmHg 96%
15:00 +11°C° 0.6 mm 4 mps 730 mmHg 96%
16:00 +10°C° 0.6 mm 4 mps 730 mmHg 96%
17:00 +10°C° 0.6 mm 4 mps 730 mmHg 96%
18:00 +8°C° 0.4 mm 5 mps 731 mmHg 96%
19:00 +8°C° 0.4 mm 5 mps 731 mmHg 96%
20:00 +7°C° 0.4 mm 5 mps 731 mmHg 96%
21:00 +7°C° 0.5 mm 6 mps 731 mmHg 96%
22:00 +7°C° 0.5 mm 6 mps 732 mmHg 95%
23:00 +7°C° 0.5 mm 6 mps 732 mmHg 95%

21 May, Friday

Time Temperature Precipitation Wind Pressure Humidity
00:00 +6°C° 0.6 mm 7 mps 732 mmHg 94%
01:00 +6°C° 0.6 mm 8 mps 733 mmHg 93%
02:00 +6°C° 0.6 mm 8 mps 733 mmHg 93%
03:00 +6°C° 0.1 mm 8 mps 734 mmHg 92%
04:00 +6°C° 0.1 mm 8 mps 735 mmHg 92%
05:00 +6°C° 0.1 mm 8 mps 735 mmHg 92%
06:00 +6°C° 0 mm 7 mps 736 mmHg 89%
07:00 +8°C° 0 mm 7 mps 737 mmHg 86%
08:00 +8°C° 0 mm 7 mps 738 mmHg 83%
09:00 +9°C° 0 mm 7 mps 738 mmHg 75%
10:00 +11°C° 0 mm 7 mps 739 mmHg 67%
11:00 +14°C° 0 mm 6 mps 739 mmHg 59%
12:00 +14°C° 0 mm 6 mps 740 mmHg 57%
13:00 +15°C° 0 mm 6 mps 740 mmHg 56%
14:00 +15°C° 0 mm 5 mps 741 mmHg 54%
15:00 +15°C° 0 mm 5 mps 741 mmHg 57%
16:00 +15°C° 0 mm 4 mps 741 mmHg 61%
17:00 +14°C° 0 mm 4 mps 741 mmHg 65%
18:00 +13°C° 0 mm 3 mps 742 mmHg 70%
19:00 +11°C° 0 mm 3 mps 742 mmHg 75%
20:00 +10°C° 0 mm 3 mps 742 mmHg 80%
21:00 +9°C° 0 mm 3 mps 743 mmHg 83%
22:00 +8°C° 0 mm 2 mps 743 mmHg 85%
23:00 +7°C° 0 mm 2 mps 743 mmHg 88%

22 May, Saturday

Time Temperature Precipitation Wind Pressure Humidity
00:00 +7°C° 0 mm 2 mps 743 mmHg 87%
01:00 +6°C° 0 mm 2 mps 744 mmHg 87%
02:00 +7°C° 0 mm 1 mps 744 mmHg 86%
03:00 +7°C° 0 mm 1 mps 744 mmHg 85%
04:00 +7°C° 0 mm 1 mps 744 mmHg 84%
05:00 +6°C° 0 mm 0 mps 744 mmHg 82%
06:00 +8°C° 0 mm 0 mps 744 mmHg 76%
07:00 +10°C° 0 mm 0 mps 745 mmHg 69%
08:00 +12°C° 0 mm 0 mps 745 mmHg 63%
09:00 +14°C° 0 mm 1 mps 745 mmHg 59%
10:00 +15°C° 0 mm 1 mps 744 mmHg 56%
11:00 +17°C° 0 mm 2 mps 744 mmHg 52%
12:00 +17°C° 0 mm 2 mps 744 mmHg 52%
13:00 +18°C° 0 mm 2 mps 744 mmHg 51%
14:00 +18°C° 0 mm 2 mps 743 mmHg 51%
15:00 +18°C° 0 mm 2 mps 743 mmHg 54%
16:00 +18°C° 0 mm 2 mps 743 mmHg 56%
17:00 +18°C° 0 mm 2 mps 743 mmHg 59%
18:00 +16°C° 0 mm 2 mps 743 mmHg 65%
19:00 +15°C° 0 mm 2 mps 743 mmHg 70%
20:00 +13°C° 0 mm 1 mps 742 mmHg 75%
21:00 +12°C° 0 mm 1 mps 742 mmHg 78%
22:00 +10°C° 0 mm 2 mps 742 mmHg 81%
23:00 +10°C° 0 mm 2 mps 742 mmHg 84%

23 May, Sunday

Time Temperature Precipitation Wind Pressure Humidity
00:00 +9°C° 0 mm 2 mps 742 mmHg 87%
01:00 +9°C° 0 mm 2 mps 742 mmHg 90%
02:00 +8°C° 0 mm 2 mps 742 mmHg 93%
03:00 +9°C° 0 mm 2 mps 742 mmHg 93%
04:00 +9°C° 0 mm 2 mps 741 mmHg 93%
05:00 +9°C° 0 mm 2 mps 741 mmHg 93%
06:00 +10°C° 0 mm 2 mps 741 mmHg 88%
07:00 +13°C° 0 mm 2 mps 741 mmHg 83%
08:00 +13°C° 0 mm 3 mps 740 mmHg 78%
09:00 +14°C° 0 mm 3 mps 740 mmHg 75%
10:00 +16°C° 0 mm 3 mps 739 mmHg 71%
11:00 +17°C° 0 mm 3 mps 739 mmHg 68%
12:00 +18°C° 0.2 mm 4 mps 738 mmHg 67%
13:00 +18°C° 0.2 mm 4 mps 738 mmHg 67%
14:00 +17°C° 0.2 mm 5 mps 737 mmHg 66%
15:00 +15°C° 0.7 mm 5 mps 737 mmHg 75%
16:00 +14°C° 0.7 mm 6 mps 737 mmHg 84%
17:00 +11°C° 0.7 mm 6 mps 737 mmHg 92%
18:00 +12°C° 0 mm 5 mps 738 mmHg 92%
19:00 +11°C° 0 mm 4 mps 738 mmHg 93%
20:00 +11°C° 0 mm 4 mps 739 mmHg 93%
21:00 +10°C° 0 mm 4 mps 739 mmHg 93%
22:00 +10°C° 0 mm 4 mps 740 mmHg 94%
23:00 +8°C° 0 mm 4 mps 740 mmHg 94%
Show more

We Need Your Consent

Meteoprog and our Service Providers may store and access personal data such as cookies, device identifiers or other similar technologies on your device and process such data to personalise content and ads, as well as provide social media features and to analyse the traffic.

  • Store and/or access information on your device

    Cookies, device identifiers or other information can be stored or accessed on your device for the purposes indicated above.

  • Personalised ads and content, ad and content measurement, audience insights, and products development

    Ads and content can be personalised based on a profile. More data can be added to better personalise ads and content. Ad and content performance can be measured. Insights about the audience who saw the ads and content can be derived. Such data can be used to develop or improve user’s experience, systems and software.

By clicking ‘I Agree’ you will allow the use of indicated cookies, device identifiers, web beacons or other similar technologies. Your settings can be changed in the browser on your device.

For certain purposes, legitimate interests may be relied on, rather than consent. You can read more about this in our Privacy and Cookie Policy.